Weather in Snegirevka

Russia / Smolensk Oblast     53°55′48″N   32°22′34″E
temp.,
°C
wind,
m/s
gust,
m/s
humid.,
%
clouds,
%
prec.,
mm/h
press.,
hPa
HPBL,
m
12 april, mon
mon1200:00+7se33720 0.0 103032
03:00+6se34770 0.0 103056
06:00+5ese3677100 0.0 103091
09:00+9e51063100 0.0 1028398
12:00+12e6838100 0.0 1026816
15:00+10ese4869100 0.1 1025576
18:00+10e2679100 0.5 1024298
21:00+9e3390100 0.5 102448
13 april, tue
tue1300:00+9ese3491100 0.0 102280
03:00+9se229393 0.1 102121
06:00+8ese2293100 0.0 102116
09:00+12se3681100 0.0 1021223
12:00+17sse5958100 0.0 10201022
15:00+17sse6755100 0.2 10201454
18:00+13s3881100 0.3 1019340
21:00+11sse369055 0.4 1020165
14 april, wed
wed1400:00+10sse389297 0.1 1019242
03:00+10sse379686 0.1 1018318
06:00+8sse359783 0.0 101897
09:00+10sse3689100 0.0 1018317
12:00+12s357699 0.0 1017509
15:00+13ssw237595 0.1 1016258
18:00+13s116981 0.0 1016619
21:00+10ne2284100 0.0 101610
15 april, thu
thu1500:00+10se1196100 3.8 101515
03:00+9sse259799 4.3 1015167
06:00+9s119493 0.1 101510
09:00+11ese2384100 0.1 1016274
12:00+13se2272100 1.1 1015369
15:00+15se4459100 2.1 10141212
18:00+11e3784100 1.2 1015384
21:00+10e4891100 1.8 1015369
16 april, fri
fri1600:00+10ne259095 0.2 1014132
03:00+8ne489285 0.2 1013179
06:00+8ene5138865 0.0 1014366
09:00+11ene6108368 0.1 1014567
12:00+14ene7870100 0.8 10141147
15:00+14e6871100 3.6 1014997
18:00+11ene6109093 5.9 1015414
21:00+9ne479458 6.9 1017138